EW3836 Weather Reports


Display with metric or nautical units.
time (UTC)temp
F
wind
direction
speed
MPH
gust
MPH
rain 1hr
in
rain 24hr
in
rain mn
in
humidity
%
barometer
mb
20260507223021 64 245 0.0 0.0 0.00 0.00 0.00 37 1012.6
20260507221512 63 291 0.0 0.0 0.00 0.00 0.00 37 1012.6
20260507220011 64 271 0.0 0.0 0.00 0.00 0.00 40 1012.8
20260507214506 63 243 0.0 0.0 0.00 0.00 0.00 45 1012.9
20260507213005 62 288 0.0 0.0 0.00 0.00 0.00 44 1013.0
20260507211503 62 292 0.0 0.0 0.00 0.00 0.00 45 1013.1
20260507210105 62 289 0.0 0.0 0.00 0.00 0.00 49 1013.1
20260507204557 61 269 0.0 0.0 0.00 0.00 0.00 50 1013.1
20260507203056 60 268 0.0 0.0 0.00 0.00 0.00 49 1013.2
20260507201605 60 273 0.0 0.0 0.00 0.00 0.00 49 1013.3
20260507200104 60 257 0.0 0.0 0.00 0.00 0.00 52 1013.4
20260507194549 59 214 0.0 0.0 0.00 0.00 0.00 54 1013.4
20260507193050 59 261 0.0 0.0 0.00 0.00 0.00 55 1013.3
20260507191545 58 227 0.0 0.0 0.00 0.00 0.00 53 1013.5
20260507190049 58 221 0.0 0.0 0.00 0.00 0.00 55 1013.6
20260507184540 57 243 0.0 0.0 0.00 0.00 0.00 60 1013.5
20260507183040 57 236 0.0 0.0 0.00 0.00 0.00 59 1013.6
20260507181535 56 254 0.0 0.0 0.00 0.00 0.00 63 1013.6
20260507180132 56 284 0.0 0.0 0.00 0.00 0.00 64 1013.6
20260507174528 55 219 0.0 0.0 0.00 0.00 0.00 64 1013.7
20260507173026 55 244 0.0 0.0 0.00 0.00 0.00 65 1013.8
20260507171524 54 259 0.0 0.0 0.00 0.00 0.00 66 1013.8
20260507170026 53 255 0.0 0.0 0.00 0.00 0.00 68 1013.9
20260507164523 53 245 0.0 0.0 0.00 0.00 0.00 71 1013.7
20260507163024 52 278 0.0 0.0 0.00 0.00 0.00 72 1013.7
20260507161529 52 249 0.0 0.0 0.00 0.00 0.00 74 1013.5
20260507160020 51 275 0.0 0.0 0.00 0.00 0.00 72 1013.7
20260507154522 50 244 0.0 0.0 0.00 0.00 0.00 76 1013.5
20260507153022 49 228 0.0 0.0 0.00 0.00 0.00 77 1013.5
20260507151518 48 245 0.0 0.0 0.00 0.00 0.00 78 1013.5
20260507150017 48 290 0.0 0.0 0.00 0.00 0.00 78 1013.3
20260507144518 49 271 0.0 0.0 0.00 0.00 0.00 77 1013.2
20260507143012 49 277 0.0 0.0 0.00 0.00 0.00 77 1013.0
20260507141510 49 263 0.0 0.0 0.00 0.00 0.00 76 1012.7
20260507140009 48 221 0.0 0.0 0.00 0.00 0.00 77 1012.5
20260507134509 48 218 0.0 0.0 0.00 0.00 0.00 80 1012.5
20260507133008 48 244 0.0 0.0 0.00 0.00 0.00 83 1012.2
20260507131515 46 200 0.0 0.0 0.00 0.00 0.00 84 1012.1
20260507130006 46 213 0.0 0.0 0.00 0.00 0.00 85 1012.1
20260507124504 46 170 0.0 0.0 0.00 0.00 0.00 84 1012.2
20260507123001 46 186 0.0 0.0 0.00 0.00 0.00 84 1012.4
20260507121603 47 284 0.0 0.0 0.00 0.00 0.00 83 1012.3
20260507120100 47 260 0.0 0.0 0.00 0.00 0.00 82 1012.4
20260507114556 48 294 0.0 0.0 0.00 0.00 0.00 80 1012.4
20260507113055 48 263 0.0 0.0 0.00 0.00 0.00 79 1012.5
20260507111549 49 285 0.0 0.0 0.00 0.00 0.00 76 1012.5
20260507110049 49 244 0.0 0.0 0.00 0.00 0.00 75 1012.4
20260507104548 49 252 0.0 0.0 0.00 0.00 0.00 74 1012.4
20260507103044 49 247 0.0 0.0 0.00 0.00 0.00 74 1012.5
20260507101556 48 306 0.0 0.0 0.00 0.00 0.00 73 1012.7
20260507100053 49 236 0.0 0.0 0.00 0.00 0.00 73 1012.4
20260507094538 50 250 0.0 0.0 0.00 0.00 0.00 72 1012.4
20260507093036 51 291 0.0 0.0 0.00 0.00 0.00 69 1012.4
20260507091534 51 269 0.0 0.0 0.00 0.00 0.00 65 1012.4
20260507090033 51 265 0.0 0.0 0.00 0.00 0.00 65 1012.2
20260507084531 49 242 0.0 0.0 0.00 0.00 0.00 68 1012.2
20260507083030 50 238 0.0 0.0 0.00 0.00 0.00 67 1012.0
20260507081524 50 252 0.0 0.0 0.00 0.00 0.00 65 1012.1
20260507080020 52 232 0.0 0.0 0.00 0.00 0.00 63 1012.1
20260507074519 52 262 0.0 0.0 0.00 0.00 0.00 63 1012.0
20260507073017 52 228 0.0 0.0 0.00 0.00 0.00 63 1012.1
20260507071513 53 269 0.0 0.0 0.00 0.00 0.00 62 1012.0
20260507070013 53 265 0.0 0.0 0.00 0.00 0.00 61 1012.0
20260507064509 52 221 0.0 0.0 0.00 0.00 0.00 63 1012.1
20260507063005 54 236 0.0 0.0 0.00 0.00 0.00 59 1011.9
20260507061606 54 245 0.0 0.0 0.00 0.00 0.00 62 1011.9
20260507060012 54 252 0.0 0.0 0.00 0.00 0.00 60 1012.0
20260507054600 56 254 0.0 0.0 0.00 0.00 0.00 58 1012.1
20260507053100 57 276 0.0 0.0 0.00 0.00 0.00 56 1012.0
20260507051602 57 293 0.0 0.0 0.00 0.00 0.00 56 1012.2
20260507050059 57 233 0.0 0.0 0.00 0.00 0.00 56 1012.0
20260507044558 58 261 0.0 0.0 0.00 0.00 0.00 54 1012.0
20260507043101 58 265 0.0 0.0 0.00 0.00 0.00 53 1012.1
20260507041557 59 240 0.0 0.0 0.00 0.00 0.00 53 1011.9
20260507040056 60 242 0.0 0.0 0.00 0.00 0.00 51 1011.9
20260507034556 61 254 0.0 0.0 0.00 0.00 0.00 50 1011.9
20260507033055 61 266 0.0 0.0 0.00 0.00 0.00 49 1011.6
20260507031553 61 252 0.0 0.0 0.00 0.00 0.00 49 1011.3
20260507030053 61 255 0.0 0.0 0.00 0.00 0.00 50 1010.9
20260507024606 62 255 0.0 0.0 0.00 0.00 0.00 50 1010.8
20260507023052 63 269 0.0 0.0 0.00 0.00 0.00 49 1010.7
20260507021552 63 261 0.0 0.0 0.00 0.00 0.00 51 1010.7
20260507020106 63 286 0.0 0.0 0.00 0.00 0.00 53 1010.6
20260507014602 64 269 0.0 0.0 0.00 0.00 0.00 55 1010.5
20260507013052 65 288 0.0 0.0 0.00 0.00 0.00 53 1010.5
20260507011549 65 294 0.0 0.0 0.00 0.00 0.00 53 1010.5
20260507010048 66 281 0.0 0.0 0.00 0.00 0.00 55 1010.4
20260507004547 66 257 0.0 0.0 0.00 0.00 0.00 54 1010.4
20260507003047 66 285 0.0 0.0 0.00 0.00 0.00 52 1010.5
20260507001548 67 304 0.0 0.0 0.00 0.00 0.00 50 1010.5
20260507000042 68 304 0.0 0.0 0.00 0.00 0.00 47 1010.5
20260506234545 68 310 0.0 0.0 0.00 0.00 0.00 48 1010.5
20260506233039 69 306 0.0 0.0 0.00 0.00 0.00 49 1010.4
20260506231548 68 302 0.0 0.0 0.00 0.00 0.00 48 1010.3
20260506230050 69 271 0.0 0.0 0.00 0.00 0.00 51 1010.4
20260506224532 68 261 0.0 0.0 0.00 0.00 0.00 53 1010.4